| time (UTC) | temp C | wind direction | speed KPH | gust KPH | rain 1hr cm | rain 24hr cm | rain mn cm | humidity % | barometer mb |
| 20260831014500 | 32 | 169 | 0.0 | 1.6 | 0.00 | 0.00 | 0.00 | 52 | 1013.0 |
| 20260831014000 | 32 | 169 | 0.0 | 1.6 | 0.00 | 0.00 | 0.00 | 51 | 1012.9 |
| 20260831013001 | 33 | 165 | 0.0 | 3.2 | 0.00 | 0.00 | 0.00 | 50 | 1012.9 |
| 20260831012500 | 33 | 163 | 0.0 | 3.2 | 0.00 | 0.00 | 0.00 | 50 | 1012.9 |
| 20260831012000 | 33 | 161 | 0.0 | 4.8 | 0.00 | 0.00 | 0.00 | 49 | 1012.8 |
| 20260831011500 | 33 | 166 | 0.0 | 4.8 | 0.00 | 0.00 | 0.00 | 49 | 1012.8 |
| 20260831010500 | 33 | 168 | 0.0 | 4.8 | 0.00 | 0.00 | 0.00 | 48 | 1012.8 |
| 20260831010000 | 34 | 176 | 0.0 | 4.8 | 0.00 | 0.00 | 0.00 | 47 | 1012.7 |
| 20260831005500 | 34 | 174 | 1.6 | 4.8 | 0.00 | 0.00 | 0.00 | 46 | 1012.7 |
| 20260831005000 | 34 | 168 | 0.0 | 4.8 | 0.00 | 0.00 | 0.00 | 46 | 1012.8 |
| 20260831004500 | 35 | 160 | 0.0 | 1.6 | 0.00 | 0.00 | 0.00 | 45 | 1012.6 |
| 20260831004001 | 35 | 169 | 0.0 | 4.8 | 0.00 | 0.00 | 0.00 | 44 | 1012.7 |
| 20260831003500 | 35 | 166 | 1.6 | 4.8 | 0.00 | 0.00 | 0.00 | 44 | 1012.6 |
| 20260831003000 | 36 | 163 | 1.6 | 4.8 | 0.00 | 0.00 | 0.00 | 44 | 1012.6 |
| 20260831002501 | 36 | 158 | 0.0 | 4.8 | 0.00 | 0.00 | 0.00 | 44 | 1012.5 |
| 20260831002000 | 36 | 151 | 0.0 | 8.0 | 0.00 | 0.00 | 0.00 | 44 | 1012.5 |
| 20260831001501 | 36 | 150 | 0.0 | 8.0 | 0.00 | 0.00 | 0.00 | 43 | 1012.6 |
| 20260831001000 | 37 | 155 | 0.0 | 3.2 | 0.00 | 0.00 | 0.00 | 42 | 1012.7 |
| 20260831000500 | 37 | 153 | 1.6 | 8.0 | 0.00 | 0.00 | 0.00 | 42 | 1012.6 |
| 20260831000000 | 37 | 155 | 1.6 | 9.7 | 0.00 | 0.00 | 0.00 | 42 | 1012.7 |
| 20260830235501 | 37 | 143 | 1.6 | 9.7 | 0.00 | 0.00 | 0.00 | 42 | 1012.7 |
| 20260830235000 | 37 | 111 | 0.0 | 8.0 | 0.00 | 0.00 | 0.00 | 42 | 1012.8 |
| 20260830234500 | 37 | 146 | 1.6 | 6.4 | 0.00 | 0.00 | 0.00 | 41 | 1012.7 |
| 20260830233500 | 37 | 128 | 1.6 | 6.4 | 0.00 | 0.00 | 0.00 | 42 | 1012.8 |
| 20260830233000 | 38 | 120 | 1.6 | 6.4 | 0.00 | 0.00 | 0.00 | 41 | 1012.8 |
| 20260830232500 | 38 | 144 | 1.6 | 8.0 | 0.00 | 0.00 | 0.00 | 41 | 1012.9 |
| 20260830232000 | 38 | 155 | 1.6 | 8.0 | 0.00 | 0.00 | 0.00 | 41 | 1012.8 |
| 20260830231500 | 38 | 161 | 1.6 | 9.7 | 0.00 | 0.00 | 0.00 | 40 | 1012.9 |
| 20260830231000 | 38 | 165 | 1.6 | 9.7 | 0.00 | 0.00 | 0.00 | 41 | 1012.9 |
| 20260830230501 | 38 | 171 | 1.6 | 6.4 | 0.00 | 0.00 | 0.00 | 40 | 1012.9 |
| 20260830230000 | 38 | 161 | 1.6 | 8.0 | 0.00 | 0.00 | 0.00 | 41 | 1013.0 |
| 20260830225501 | 38 | 162 | 1.6 | 8.0 | 0.00 | 0.00 | 0.00 | 41 | 1013.0 |
| 20260830225001 | 37 | 175 | 1.6 | 6.4 | 0.00 | 0.00 | 0.00 | 41 | 1013.1 |
| 20260830224500 | 37 | 179 | 1.6 | 6.4 | 0.00 | 0.00 | 0.00 | 41 | 1013.1 |
| 20260830224000 | 37 | 179 | 1.6 | 6.4 | 0.00 | 0.00 | 0.00 | 41 | 1013.1 |
| 20260830223501 | 37 | 182 | 1.6 | 6.4 | 0.00 | 0.00 | 0.00 | 41 | 1013.1 |
| 20260830223001 | 37 | 186 | 3.2 | 12.9 | 0.00 | 0.00 | 0.00 | 41 | 1013.1 |
| 20260830222001 | 37 | 183 | 4.8 | 12.9 | 0.00 | 0.00 | 0.00 | 41 | 1013.2 |
| 20260830221501 | 37 | 174 | 1.6 | 12.9 | 0.00 | 0.00 | 0.00 | 40 | 1013.1 |
| 20260830221000 | 37 | 116 | 1.6 | 6.4 | 0.00 | 0.00 | 0.00 | 42 | 1013.1 |
| 20260830220001 | 38 | 158 | 3.2 | 20.9 | 0.00 | 0.00 | 0.00 | 40 | 1013.0 |
| 20260830215501 | 38 | 145 | 1.6 | 11.3 | 0.00 | 0.00 | 0.00 | 40 | 1013.0 |
| 20260830215000 | 37 | 142 | 3.2 | 8.0 | 0.00 | 0.00 | 0.00 | 42 | 1013.2 |
| 20260830214501 | 37 | 163 | 1.6 | 8.0 | 0.00 | 0.00 | 0.00 | 41 | 1013.2 |
| 20260830214001 | 37 | 177 | 3.2 | 11.3 | 0.00 | 0.00 | 0.00 | 38 | 1013.2 |
| 20260830213001 | 38 | 168 | 1.6 | 11.3 | 0.00 | 0.00 | 0.00 | 37 | 1013.4 |
| 20260830212501 | 38 | 168 | 3.2 | 11.3 | 0.00 | 0.00 | 0.00 | 37 | 1013.4 |
| 20260830211501 | 39 | 157 | 3.2 | 12.9 | 0.00 | 0.00 | 0.00 | 36 | 1013.6 |
| 20260830211000 | 39 | 151 | 3.2 | 12.9 | 0.00 | 0.00 | 0.00 | 38 | 1013.4 |
| 20260830205001 | 38 | 183 | 6.4 | 20.9 | 0.00 | 0.00 | 0.00 | 38 | 1013.7 |
| 20260830204500 | 38 | 202 | 4.8 | 20.9 | 0.00 | 0.00 | 0.00 | 38 | 1013.8 |
| 20260830204001 | 38 | 196 | 4.8 | 12.9 | 0.00 | 0.00 | 0.00 | 38 | 1013.9 |
| 20260830203000 | 38 | 170 | 3.2 | 9.7 | 0.00 | 0.00 | 0.00 | 39 | 1014.0 |
| 20260830202501 | 38 | 168 | 3.2 | 9.7 | 0.00 | 0.00 | 0.00 | 40 | 1014.1 |
| 20260830201500 | 37 | 183 | 6.4 | 16.1 | 0.00 | 0.00 | 0.00 | 41 | 1014.4 |
| 20260830200501 | 38 | 176 | 3.2 | 12.9 | 0.00 | 0.00 | 0.00 | 41 | 1014.4 |
| 20260830200001 | 38 | 170 | 4.8 | 11.3 | 0.00 | 0.00 | 0.00 | 41 | 1014.5 |
| 20260830195001 | 37 | 181 | 4.8 | 16.1 | 0.00 | 0.00 | 0.00 | 41 | 1014.6 |
| 20260830194501 | 37 | 183 | 4.8 | 12.9 | 0.00 | 0.00 | 0.00 | 42 | 1014.7 |
| 20260830194000 | 37 | 166 | 4.8 | 19.3 | 0.00 | 0.00 | 0.00 | 42 | 1014.8 |
| 20260830193501 | 37 | 169 | 6.4 | 19.3 | 0.00 | 0.00 | 0.00 | 40 | 1014.9 |
| 20260830193001 | 38 | 173 | 4.8 | 16.1 | 0.00 | 0.00 | 0.00 | 41 | 1014.8 |
| 20260830192502 | 38 | 197 | 4.8 | 16.1 | 0.00 | 0.00 | 0.00 | 44 | 1014.8 |
| 20260830191502 | 37 | 196 | 6.4 | 19.3 | 0.00 | 0.00 | 0.00 | 43 | 1015.1 |
| 20260830191000 | 37 | 190 | 4.8 | 12.9 | 0.00 | 0.00 | 0.00 | 43 | 1015.2 |
| 20260830190501 | 37 | 183 | 6.4 | 14.5 | 0.00 | 0.00 | 0.00 | 44 | 1015.3 |
| 20260830190000 | 37 | 183 | 6.4 | 17.7 | 0.00 | 0.00 | 0.00 | 43 | 1015.4 |
| 20260830185501 | 37 | 185 | 4.8 | 17.7 | 0.00 | 0.00 | 0.00 | 44 | 1015.3 |
| 20260830185002 | 37 | 178 | 6.4 | 17.7 | 0.00 | 0.00 | 0.00 | 43 | 1015.5 |
| 20260830184501 | 37 | 176 | 6.4 | 17.7 | 0.00 | 0.00 | 0.00 | 44 | 1015.5 |
| 20260830184001 | 37 | 188 | 6.4 | 17.7 | 0.00 | 0.00 | 0.00 | 44 | 1015.6 |
| 20260830183500 | 37 | 183 | 6.4 | 16.1 | 0.00 | 0.00 | 0.00 | 44 | 1015.7 |
| 20260830183001 | 37 | 165 | 4.8 | 17.7 | 0.00 | 0.00 | 0.00 | 45 | 1015.5 |
| 20260830182501 | 37 | 172 | 4.8 | 17.7 | 0.00 | 0.00 | 0.00 | 45 | 1015.7 |
| 20260830182001 | 37 | 167 | 4.8 | 12.9 | 0.00 | 0.00 | 0.00 | 45 | 1015.8 |
| 20260830181501 | 37 | 178 | 6.4 | 20.9 | 0.00 | 0.00 | 0.00 | 46 | 1015.9 |
| 20260830181001 | 37 | 189 | 8.0 | 20.9 | 0.00 | 0.00 | 0.00 | 46 | 1016.0 |
| 20260830180501 | 37 | 188 | 8.0 | 17.7 | 0.00 | 0.00 | 0.00 | 46 | 1016.0 |
| 20260830180000 | 37 | 199 | 6.4 | 14.5 | 0.00 | 0.00 | 0.00 | 47 | 1016.2 |
| 20260830175501 | 37 | 203 | 6.4 | 14.5 | 0.00 | 0.00 | 0.00 | 47 | 1016.1 |
| 20260830175001 | 37 | 205 | 4.8 | 12.9 | 0.00 | 0.00 | 0.00 | 47 | 1016.3 |
| 20260830174501 | 36 | 202 | 4.8 | 14.5 | 0.00 | 0.00 | 0.00 | 48 | 1016.3 |
| 20260830174001 | 36 | 197 | 4.8 | 20.9 | 0.00 | 0.00 | 0.00 | 47 | 1016.3 |
| 20260830173500 | 36 | 182 | 6.4 | 20.9 | 0.00 | 0.00 | 0.00 | 48 | 1016.4 |
| 20260830173001 | 36 | 176 | 6.4 | 17.7 | 0.00 | 0.00 | 0.00 | 49 | 1016.5 |
| 20260830172502 | 36 | 184 | 6.4 | 17.7 | 0.00 | 0.00 | 0.00 | 49 | 1016.5 |
| 20260830172001 | 36 | 171 | 4.8 | 16.1 | 0.00 | 0.00 | 0.00 | 48 | 1016.6 |
| 20260830171001 | 36 | 185 | 6.4 | 19.3 | 0.00 | 0.00 | 0.00 | 51 | 1016.7 |
| 20260830170001 | 35 | 210 | 4.8 | 16.1 | 0.00 | 0.00 | 0.00 | 51 | 1016.8 |
| 20260830165501 | 35 | 200 | 6.4 | 16.1 | 0.00 | 0.00 | 0.00 | 51 | 1016.8 |
| 20260830165001 | 35 | 186 | 6.4 | 16.1 | 0.00 | 0.00 | 0.00 | 52 | 1016.8 |
| 20260830164502 | 35 | 186 | 4.8 | 16.1 | 0.00 | 0.00 | 0.00 | 52 | 1016.8 |
| 20260830164001 | 35 | 195 | 3.2 | 16.1 | 0.00 | 0.00 | 0.00 | 53 | 1017.0 |
| 20260830163501 | 35 | 185 | 4.8 | 16.1 | 0.00 | 0.00 | 0.00 | 53 | 1017.0 |
| 20260830163001 | 35 | 195 | 4.8 | 12.9 | 0.00 | 0.00 | 0.00 | 55 | 1017.0 |
| 20260830162501 | 35 | 225 | 3.2 | 11.3 | 0.00 | 0.00 | 0.00 | 56 | 1017.0 |
| 20260830162001 | 35 | 223 | 3.2 | 11.3 | 0.00 | 0.00 | 0.00 | 56 | 1017.2 |
| 20260830161502 | 35 | 221 | 3.2 | 8.0 | 0.00 | 0.00 | 0.00 | 56 | 1017.1 |
| 20260830161001 | 34 | 220 | 3.2 | 9.7 | 0.00 | 0.00 | 0.00 | 57 | 1017.0 |
| 20260830160501 | 34 | 221 | 4.8 | 11.3 | 0.00 | 0.00 | 0.00 | 57 | 1017.0 |
| 20260830160001 | 33 | 224 | 4.8 | 11.3 | 0.00 | 0.00 | 0.00 | 58 | 1017.0 |
| 20260830155502 | 33 | 208 | 4.8 | 11.3 | 0.00 | 0.00 | 0.00 | 58 | 1017.0 |
| 20260830155001 | 33 | 220 | 4.8 | 11.3 | 0.00 | 0.00 | 0.00 | 59 | 1017.0 |
| 20260830154001 | 33 | 219 | 3.2 | 9.7 | 0.00 | 0.00 | 0.00 | 59 | 1017.0 |
| 20260830153501 | 33 | 214 | 1.6 | 9.7 | 0.00 | 0.00 | 0.00 | 60 | 1017.2 |
| 20260830153001 | 32 | 217 | 3.2 | 11.3 | 0.00 | 0.00 | 0.00 | 61 | 1017.2 |
| 20260830152502 | 32 | 229 | 3.2 | 11.3 | 0.00 | 0.00 | 0.00 | 62 | 1017.2 |
| 20260830150501 | 32 | 202 | 3.2 | 9.7 | 0.00 | 0.00 | 0.00 | 65 | 1017.0 |
| 20260830150001 | 31 | 200 | 1.6 | 9.7 | 0.00 | 0.00 | 0.00 | 64 | 1017.1 |
| 20260830145501 | 31 | 202 | 1.6 | 8.0 | 0.00 | 0.00 | 0.00 | 66 | 1017.0 |
| 20260830145002 | 31 | 198 | 1.6 | 8.0 | 0.00 | 0.00 | 0.00 | 67 | 1017.1 |
| 20260830144501 | 31 | 203 | 1.6 | 6.4 | 0.00 | 0.00 | 0.00 | 69 | 1017.0 |
| 20260830143501 | 30 | 173 | 1.6 | 6.4 | 0.00 | 0.00 | 0.00 | 71 | 1017.0 |
| 20260830143001 | 30 | 177 | 1.6 | 6.4 | 0.00 | 0.00 | 0.00 | 71 | 1017.1 |
| 20260830142001 | 30 | 190 | 1.6 | 8.0 | 0.00 | 0.00 | 0.00 | 72 | 1017.2 |
| 20260830141501 | 29 | 199 | 1.6 | 8.0 | 0.00 | 0.00 | 0.00 | 73 | 1017.2 |
| 20260830141002 | 29 | 187 | 1.6 | 6.4 | 0.00 | 0.00 | 0.00 | 74 | 1017.3 |
| 20260830140001 | 28 | 194 | 1.6 | 9.7 | 0.00 | 0.00 | 0.00 | 76 | 1017.2 |
| 20260830135502 | 28 | 193 | 1.6 | 8.0 | 0.00 | 0.00 | 0.00 | 77 | 1017.1 |
| 20260830135001 | 27 | 183 | 1.6 | 4.8 | 0.00 | 0.00 | 0.00 | 78 | 1017.1 |
| 20260830134502 | 27 | 183 | 1.6 | 6.4 | 0.00 | 0.00 | 0.00 | 79 | 1017.1 |
| 20260830134001 | 27 | 184 | 3.2 | 8.0 | 0.00 | 0.00 | 0.00 | 79 | 1017.1 |
| 20260830133501 | 26 | 174 | 3.2 | 8.0 | 0.00 | 0.00 | 0.00 | 80 | 1017.1 |
| 20260830133002 | 26 | 173 | 3.2 | 9.7 | 0.00 | 0.00 | 0.00 | 81 | 1017.0 |
| 20260830132502 | 26 | 179 | 3.2 | 9.7 | 0.00 | 0.00 | 0.00 | 81 | 1016.9 |
| 20260830131501 | 26 | 181 | 1.6 | 6.4 | 0.00 | 0.00 | 0.00 | 81 | 1016.7 |
| 20260830131002 | 25 | 179 | 1.6 | 8.0 | 0.00 | 0.00 | 0.00 | 82 | 1016.9 |
| 20260830130002 | 25 | 169 | 0.0 | 4.8 | 0.00 | 0.00 | 0.00 | 82 | 1016.8 |
| 20260830125501 | 25 | 168 | 0.0 | 3.2 | 0.00 | 0.00 | 0.00 | 81 | 1016.7 |
| 20260830125001 | 25 | 163 | 0.0 | 4.8 | 0.00 | 0.00 | 0.00 | 81 | 1016.6 |
| 20260830124502 | 25 | 168 | 0.0 | 4.8 | 0.00 | 0.00 | 0.00 | 81 | 1016.5 |
| 20260830124002 | 25 | 174 | 0.0 | 4.8 | 0.00 | 0.00 | 0.00 | 81 | 1016.6 |
| 20260830123501 | 25 | 169 | 0.0 | 3.2 | 0.00 | 0.00 | 0.00 | 81 | 1016.4 |
| 20260830123002 | 25 | 167 | 0.0 | 3.2 | 0.00 | 0.00 | 0.00 | 81 | 1016.4 |
| 20260830122501 | 25 | 178 | 0.0 | 3.2 | 0.00 | 0.00 | 0.00 | 80 | 1016.4 |
| 20260830122002 | 25 | 188 | 0.0 | 3.2 | 0.00 | 0.00 | 0.00 | 80 | 1016.2 |
| 20260830121501 | 25 | 189 | 0.0 | 3.2 | 0.00 | 0.00 | 0.00 | 80 | 1016.2 |
| 20260830120501 | 25 | 0 | 0.0 | 0.0 | 0.00 | 0.00 | 0.00 | 79 | 1016.1 |
| 20260830120001 | 25 | 194 | 0.0 | 3.2 | 0.00 | 0.00 | 0.00 | 78 | 1016.2 |
| 20260830115501 | 25 | 191 | 0.0 | 3.2 | 0.00 | 0.00 | 0.00 | 78 | 1016.0 |
| 20260830115001 | 25 | 184 | 0.0 | 4.8 | 0.00 | 0.00 | 0.00 | 78 | 1016.0 |
| 20260830114501 | 25 | 182 | 0.0 | 4.8 | 0.00 | 0.00 | 0.00 | 77 | 1015.9 |
| 20260830114002 | 25 | 169 | 0.0 | 3.2 | 0.00 | 0.00 | 0.00 | 77 | 1015.8 |
| 20260830113502 | 25 | 158 | 0.0 | 3.2 | 0.00 | 0.00 | 0.00 | 76 | 1015.8 |
| 20260830113001 | 25 | 171 | 0.0 | 1.6 | 0.00 | 0.00 | 0.00 | 76 | 1015.8 |
| 20260830112501 | 25 | 172 | 0.0 | 1.6 | 0.00 | 0.00 | 0.00 | 76 | 1015.7 |
| 20260830112001 | 25 | 174 | 0.0 | 3.2 | 0.00 | 0.00 | 0.00 | 76 | 1015.6 |
| 20260830111502 | 25 | 173 | 0.0 | 3.2 | 0.00 | 0.00 | 0.00 | 76 | 1015.6 |
| 20260830111002 | 25 | 172 | 0.0 | 3.2 | 0.00 | 0.00 | 0.00 | 75 | 1015.5 |
| 20260830110001 | 25 | 171 | 0.0 | 1.6 | 0.00 | 0.00 | 0.00 | 74 | 1015.5 |
| 20260830105501 | 25 | 171 | 0.0 | 1.6 | 0.00 | 0.00 | 0.00 | 74 | 1015.5 |
| 20260830105002 | 25 | 171 | 0.0 | 1.6 | 0.00 | 0.00 | 0.00 | 73 | 1015.5 |
| 20260830104502 | 25 | 171 | 0.0 | 3.2 | 0.00 | 0.00 | 0.00 | 73 | 1015.4 |
| 20260830104001 | 25 | 170 | 0.0 | 3.2 | 0.00 | 0.00 | 0.00 | 73 | 1015.4 |
| 20260830103002 | 25 | 168 | 0.0 | 3.2 | 0.00 | 0.00 | 0.00 | 72 | 1015.4 |
| 20260830102501 | 26 | 0 | 0.0 | 0.0 | 0.00 | 0.00 | 0.00 | 71 | 1015.3 |
| 20260830102001 | 26 | 0 | 0.0 | 0.0 | 0.00 | 0.00 | 0.00 | 70 | 1015.3 |
| 20260830101502 | 26 | 168 | 0.0 | 1.6 | 0.00 | 0.00 | 0.00 | 70 | 1015.3 |
| 20260830101001 | 26 | 168 | 0.0 | 3.2 | 0.00 | 0.00 | 0.00 | 70 | 1015.3 |
| 20260830100501 | 26 | 168 | 0.0 | 3.2 | 0.00 | 0.00 | 0.00 | 69 | 1015.3 |
| 20260830100002 | 26 | 168 | 0.0 | 1.6 | 0.00 | 0.00 | 0.00 | 69 | 1015.3 |
| 20260830095502 | 26 | 0 | 0.0 | 0.0 | 0.00 | 0.00 | 0.00 | 69 | 1015.3 |
| 20260830095002 | 26 | 0 | 0.0 | 0.0 | 0.00 | 0.00 | 0.00 | 68 | 1015.4 |
| 20260830094501 | 26 | 0 | 0.0 | 0.0 | 0.00 | 0.00 | 0.00 | 68 | 1015.3 |
| 20260830094001 | 26 | 0 | 0.0 | 0.0 | 0.00 | 0.00 | 0.00 | 68 | 1015.3 |
| 20260830093502 | 26 | 0 | 0.0 | 0.0 | 0.00 | 0.00 | 0.00 | 68 | 1015.3 |
| 20260830093001 | 26 | 168 | 0.0 | 1.6 | 0.00 | 0.00 | 0.00 | 68 | 1015.3 |
| 20260830092502 | 26 | 168 | 0.0 | 1.6 | 0.00 | 0.00 | 0.00 | 67 | 1015.3 |
| 20260830091503 | 26 | 168 | 0.0 | 1.6 | 0.00 | 0.00 | 0.00 | 67 | 1015.4 |
| 20260830091002 | 26 | 0 | 0.0 | 0.0 | 0.00 | 0.00 | 0.00 | 66 | 1015.2 |
| 20260830090502 | 26 | 0 | 0.0 | 0.0 | 0.00 | 0.00 | 0.00 | 66 | 1015.3 |
| 20260830090002 | 26 | 0 | 0.0 | 0.0 | 0.00 | 0.00 | 0.00 | 66 | 1015.4 |
| 20260830085502 | 26 | 0 | 0.0 | 0.0 | 0.00 | 0.00 | 0.00 | 65 | 1015.4 |
| 20260830085001 | 26 | 0 | 0.0 | 0.0 | 0.00 | 0.00 | 0.00 | 65 | 1015.3 |
| 20260830084502 | 27 | 0 | 0.0 | 0.0 | 0.00 | 0.00 | 0.00 | 64 | 1015.3 |
| 20260830084002 | 27 | 0 | 0.0 | 0.0 | 0.00 | 0.00 | 0.00 | 64 | 1015.3 |
| 20260830083502 | 27 | 162 | 0.0 | 3.2 | 0.00 | 0.00 | 0.00 | 64 | 1015.4 |
| 20260830083001 | 27 | 171 | 0.0 | 4.8 | 0.00 | 0.00 | 0.00 | 63 | 1015.4 |
| 20260830082501 | 27 | 178 | 0.0 | 4.8 | 0.00 | 0.00 | 0.00 | 63 | 1015.4 |
| 20260830081502 | 27 | 184 | 0.0 | 4.8 | 0.00 | 0.00 | 0.00 | 62 | 1015.4 |
| 20260830081002 | 27 | 181 | 0.0 | 4.8 | 0.00 | 0.00 | 0.00 | 63 | 1015.4 |
| 20260830080502 | 27 | 185 | 0.0 | 3.2 | 0.00 | 0.00 | 0.00 | 64 | 1015.3 |
| 20260830080001 | 27 | 199 | 0.0 | 3.2 | 0.00 | 0.00 | 0.00 | 63 | 1015.2 |
| 20260830075502 | 27 | 190 | 0.0 | 3.2 | 0.00 | 0.00 | 0.00 | 63 | 1015.2 |
| 20260830075002 | 27 | 0 | 0.0 | 0.0 | 0.00 | 0.00 | 0.00 | 62 | 1015.2 |
| 20260830074502 | 27 | 0 | 0.0 | 0.0 | 0.00 | 0.00 | 0.00 | 61 | 1015.2 |
| 20260830074002 | 27 | 0 | 0.0 | 0.0 | 0.00 | 0.00 | 0.00 | 60 | 1015.3 |
| 20260830072502 | 28 | 145 | 0.0 | 3.2 | 0.00 | 0.00 | 0.00 | 59 | 1015.4 |
| 20260830072002 | 28 | 145 | 0.0 | 3.2 | 0.00 | 0.00 | 0.00 | 59 | 1015.3 |
| 20260830071501 | 28 | 166 | 0.0 | 3.2 | 0.00 | 0.00 | 0.00 | 59 | 1015.4 |
| 20260830071001 | 28 | 169 | 0.0 | 3.2 | 0.00 | 0.00 | 0.00 | 58 | 1015.4 |
| 20260830070002 | 28 | 170 | 0.0 | 4.8 | 0.00 | 0.00 | 0.00 | 58 | 1015.4 |
| 20260830065502 | 28 | 167 | 0.0 | 4.8 | 0.00 | 0.00 | 0.00 | 58 | 1015.4 |
| 20260830065002 | 28 | 167 | 0.0 | 3.2 | 0.00 | 0.00 | 0.00 | 58 | 1015.5 |
| 20260830064502 | 29 | 149 | 0.0 | 4.8 | 0.00 | 0.00 | 0.00 | 58 | 1015.4 |
| 20260830064002 | 29 | 137 | 0.0 | 4.8 | 0.00 | 0.00 | 0.00 | 58 | 1015.3 |
| 20260830063502 | 29 | 168 | 0.0 | 8.0 | 0.00 | 0.00 | 0.00 | 58 | 1015.4 |
| 20260830063003 | 29 | 165 | 0.0 | 8.0 | 0.00 | 0.00 | 0.00 | 58 | 1015.4 |
| 20260830062002 | 29 | 141 | 0.0 | 4.8 | 0.00 | 0.00 | 0.00 | 59 | 1015.4 |
| 20260830061001 | 29 | 173 | 0.0 | 3.2 | 0.00 | 0.00 | 0.00 | 60 | 1015.5 |
| 20260830060502 | 29 | 155 | 0.0 | 3.2 | 0.00 | 0.00 | 0.00 | 61 | 1015.5 |
| 20260830060002 | 29 | 120 | 0.0 | 3.2 | 0.00 | 0.00 | 0.00 | 61 | 1015.4 |
| 20260830055502 | 29 | 109 | 0.0 | 3.2 | 0.00 | 0.00 | 0.00 | 60 | 1015.5 |
| 20260830055002 | 29 | 141 | 0.0 | 3.2 | 0.00 | 0.00 | 0.00 | 60 | 1015.4 |
| 20260830054002 | 29 | 178 | 0.0 | 3.2 | 0.00 | 0.00 | 0.00 | 62 | 1015.4 |
| 20260830053502 | 29 | 178 | 0.0 | 3.2 | 0.00 | 0.00 | 0.00 | 62 | 1015.5 |
| 20260830053002 | 28 | 0 | 0.0 | 0.0 | 0.00 | 0.00 | 0.00 | 62 | 1015.3 |
| 20260830052002 | 29 | 0 | 0.0 | 0.0 | 0.00 | 0.00 | 0.00 | 61 | 1015.2 |
| 20260830051502 | 29 | 0 | 0.0 | 0.0 | 0.00 | 0.00 | 0.00 | 58 | 1015.3 |
| 20260830051002 | 30 | 0 | 0.0 | 0.0 | 0.00 | 0.00 | 0.00 | 56 | 1015.1 |
| 20260830050502 | 30 | 178 | 0.0 | 3.2 | 0.00 | 0.00 | 0.00 | 56 | 1014.9 |
| 20260830050004 | 30 | 178 | 0.0 | 3.2 | 0.00 | 0.00 | 0.00 | 56 | 1015.0 |
| 20260830045502 | 30 | 178 | 0.0 | 3.2 | 0.00 | 0.00 | 0.00 | 56 | 1015.0 |
| 20260830044502 | 30 | 178 | 0.0 | 3.2 | 0.00 | 0.00 | 0.00 | 56 | 1014.9 |
| 20260830044002 | 30 | 178 | 0.0 | 3.2 | 0.00 | 0.00 | 0.00 | 56 | 1015.0 |
| 20260830043002 | 30 | 0 | 0.0 | 0.0 | 0.00 | 0.00 | 0.00 | 55 | 1014.9 |
| 20260830042502 | 30 | 178 | 0.0 | 1.6 | 0.00 | 0.00 | 0.00 | 55 | 1014.9 |
| 20260830042002 | 30 | 178 | 0.0 | 1.6 | 0.00 | 0.00 | 0.00 | 54 | 1014.9 |
| 20260830041502 | 30 | 181 | 0.0 | 3.2 | 0.00 | 0.00 | 0.00 | 54 | 1014.9 |
| 20260830041003 | 31 | 183 | 0.0 | 3.2 | 0.00 | 0.00 | 0.00 | 54 | 1014.9 |
| 20260830040502 | 31 | 187 | 0.0 | 4.8 | 0.00 | 0.00 | 0.00 | 53 | 1014.9 |
| 20260830035502 | 31 | 192 | 0.0 | 4.8 | 0.00 | 0.00 | 0.00 | 53 | 1014.8 |
| 20260830035003 | 31 | 193 | 0.0 | 3.2 | 0.00 | 0.00 | 0.00 | 53 | 1014.9 |
| 20260830034502 | 31 | 195 | 0.0 | 3.2 | 0.00 | 0.00 | 0.00 | 53 | 1014.8 |
| 20260830033502 | 31 | 181 | 0.0 | 4.8 | 0.00 | 0.00 | 0.00 | 52 | 1014.8 |
| 20260830033003 | 31 | 175 | 0.0 | 6.4 | 0.00 | 0.00 | 0.00 | 53 | 1014.7 |
| 20260830032502 | 31 | 174 | 0.0 | 6.4 | 0.00 | 0.00 | 0.00 | 52 | 1014.7 |
| 20260830032002 | 31 | 170 | 0.0 | 3.2 | 0.00 | 0.00 | 0.00 | 52 | 1014.6 |
| 20260830031003 | 31 | 169 | 0.0 | 3.2 | 0.00 | 0.00 | 0.00 | 52 | 1014.5 |
| 20260830030502 | 31 | 169 | 0.0 | 3.2 | 0.00 | 0.00 | 0.00 | 51 | 1014.5 |
| 20260830030002 | 31 | 169 | 0.0 | 4.8 | 0.00 | 0.00 | 0.00 | 51 | 1014.5 |
| 20260830025503 | 31 | 172 | 0.0 | 4.8 | 0.00 | 0.00 | 0.00 | 50 | 1014.5 |
| 20260830024503 | 31 | 173 | 0.0 | 4.8 | 0.00 | 0.00 | 0.00 | 50 | 1014.5 |
| 20260830023502 | 32 | 173 | 0.0 | 1.6 | 0.00 | 0.00 | 0.00 | 49 | 1014.4 |
| 20260830023002 | 32 | 173 | 0.0 | 3.2 | 0.00 | 0.00 | 0.00 | 49 | 1014.3 |
| 20260830022503 | 32 | 173 | 0.0 | 3.2 | 0.00 | 0.00 | 0.00 | 48 | 1014.3 |
| 20260830022003 | 32 | 174 | 0.0 | 3.2 | 0.00 | 0.00 | 0.00 | 48 | 1014.3 |
| 20260830021503 | 32 | 173 | 0.0 | 3.2 | 0.00 | 0.00 | 0.00 | 47 | 1014.2 |
| 20260830021002 | 32 | 173 | 0.0 | 3.2 | 0.00 | 0.00 | 0.00 | 47 | 1014.1 |
| 20260830020502 | 33 | 171 | 0.0 | 1.6 | 0.00 | 0.00 | 0.00 | 46 | 1014.1 |
| 20260830020002 | 33 | 171 | 0.0 | 1.6 | 0.00 | 0.00 | 0.00 | 46 | 1014.1 |
| 20260830015502 | 33 | 170 | 0.0 | 4.8 | 0.00 | 0.00 | 0.00 | 46 | 1014.0 |
| 20260830015003 | 33 | 170 | 1.6 | 4.8 | 0.00 | 0.00 | 0.00 | 45 | 1013.9 |